sat.trackr.live / text

‹ back to catalog

STARLINK-35018

NORAD 65288 · 2025-184R

PAYLOAD ACTIVE UNKNOWN

§ Identity

Operator
Country
US
Launch date
2025-08-22
Launch site
AFWTR
Launch vehicle
Mass (kg)
RCS (m²)

Purposes: comms

External: N2YO · Heavens-Above · Gunter

§ Orbital elements

Epoch: 2026-05-25T03:00:04.746816Z

Period
95.64 min
Inclination
97.4463°
Eccentricity
0.0002605
Mean motion
15.05653479 rev/d
Perigee alt
547.7 km
Apogee alt
551.3 km
Semi-major
6,927.6 km
B*
4.0761e-4
RAAN
197.6598°
Arg perigee
129.6748°
Mean anomaly
230.4709°
Rev number
4,280

§ Raw data

STARLINK-350181 65288U 25184R   26145.12505494  .00005828  00000+0  40761-3 0  99902 65288  97.4463 197.6598 0002605 129.6748 230.4709 15.05653479 42803

JSON: /api/v1/satellites/65288 · /tle

For live sub-satellite position, see the globe view (requires WebGL).

§ Visibility from observer

Set your observer location to see the next 7 days of passes ≥ 10°. The values pass through the URL so the page stays shareable.

No JS? Fill the form by hand. The geolocation button needs JavaScript.